Location: Caltech
(34.1382°N, 118.1253°W)
Time: 13:35:27
(UTC-07:00)

HO-68 - Visible Passes

Search period start: 26 April 2018 00:00
Search period end: 06 May 2018 00:00
Orbit: 1193 x 1204 km, 100.1° (Epoch: 25 April)

Date Brightness Start Highest point End Pass type
(mag) Time Alt. Az. Time Alt. Az. Time Alt. Az.
27 Apr ? 20:47:26 10° WSW 20:50:09 12° W 20:52:53 10° WNW visible
28 Apr ? 20:28:25 10° SW 20:33:01 18° W 20:37:39 10° NW visible
29 Apr ? 20:10:15 10° SSW 20:15:54 25° W 20:21:37 10° NW visible
30 Apr ? 19:52:30 10° SSW 19:58:51 34° W 20:05:15 10° NW visible
03 May ? 20:55:37 10° W 20:56:29 10° W 20:57:21 10° W visible
04 May ? 20:35:21 10° SW 20:39:19 15° W 20:43:18 10° WNW visible
05 May ? 20:16:55 10° SW 20:22:12 22° W 20:27:31 10° NW visible
